Location: Unspecified
(0.0000°N, 0.0000°E)
Time: 15:47:55
(UTC+00:00)

Envisat - Pass Details

Date: 05 January 2018
Orbit: 764 x 766 km, 98.2° (Epoch: 17 July)

Event Time Altitude Azimuth Distance (km) Brightness Sun altitude
Rises 21:03:08 0° 200° (SSW) 3,227 6.8 -40.2°
Reaches altitude 10° 21:06:18 10° 221° (SW) 2,299 6.1 -40.9°
Enters shadow 21:08:55 16° 252° (WSW) 1,921 5.6 -41.5°
